FLI451 ENAL-EKVG

Flight info

Callsign FLI451
Flight time N/A
Altitude 30000
Route ALAVU DCT IPTON/M070F300 DCT ROBUR
Aircraft RJ1H/M-SDFGIRWY/LB1

Departure

Time N/A
Airport Ålesund Airport (ENAL)

Arrival

Time 2026-04-29 22:20
Airport Vágar Airport (EKVG)
Time Latitude Longitude Altitude Speed Heading
2026-04-29 21:49 61.99497 -2.33058 30393 ft 395 kts 267°
2026-04-29 21:49 61.99440 -2.38916 30392 ft 395 kts 267°
2026-04-29 21:50 61.99318 -2.50623 30393 ft 395 kts 267°
2026-04-29 21:50 61.99184 -2.62317 30385 ft 395 kts 267°
2026-04-29 21:51 61.99045 -2.73951 30384 ft 395 kts 266°
2026-04-29 21:51 61.98797 -2.91489 30389 ft 394 kts 266°
2026-04-29 21:52 61.98594 -3.03126 30383 ft 393 kts 266°
2026-04-29 21:52 61.98413 -3.14654 30382 ft 392 kts 266°
2026-04-29 21:53 61.98221 -3.26280 30380 ft 392 kts 265°
2026-04-29 21:53 61.98014 -3.37888 30380 ft 393 kts 265°
2026-04-29 21:54 61.97799 -3.49483 30372 ft 393 kts 265°
2026-04-29 21:54 61.97571 -3.61090 30378 ft 393 kts 265°
2026-04-29 21:55 61.97342 -3.72684 30374 ft 391 kts 265°
2026-04-29 21:55 61.97112 -3.84238 30369 ft 391 kts 265°
2026-04-29 21:56 61.96877 -3.95725 30369 ft 391 kts 265°
2026-04-29 21:56 61.96627 -4.07277 30361 ft 391 kts 265°
2026-04-29 21:57 61.96354 -4.18820 30361 ft 391 kts 264°
2026-04-29 21:57 61.96072 -4.30361 30361 ft 391 kts 265°
2026-04-29 21:58 61.95779 -4.41901 30363 ft 391 kts 264°
2026-04-29 21:58 61.95465 -4.53403 30360 ft 390 kts 264°
2026-04-29 21:59 61.95142 -4.64919 30350 ft 390 kts 264°
2026-04-29 21:59 61.94813 -4.76420 30357 ft 390 kts 264°
2026-04-29 22:00 61.94485 -4.87918 30360 ft 391 kts 264°
2026-04-29 22:00 61.94145 -4.99426 30327 ft 390 kts 264°
2026-04-29 22:01 61.93972 -5.05240 29768 ft 396 kts 263°
2026-04-29 22:01 61.93803 -5.11144 29115 ft 401 kts 263°
2026-04-29 22:01 61.93639 -5.17043 28147 ft 398 kts 263°
2026-04-29 22:01 61.93457 -5.22906 27148 ft 399 kts 263°
2026-04-29 22:02 61.93267 -5.28787 26196 ft 399 kts 262°
2026-04-29 22:02 61.93082 -5.34570 25273 ft 387 kts 262°
2026-04-29 22:02 61.92908 -5.40206 24370 ft 389 kts 262°
2026-04-29 22:02 61.92720 -5.45933 23383 ft 389 kts 262°
2026-04-29 22:03 61.92523 -5.51543 22475 ft 366 kts 262°
2026-04-29 22:03 61.92344 -5.56883 21477 ft 357 kts 261°
2026-04-29 22:03 61.92173 -5.62077 20516 ft 347 kts 261°
2026-04-29 22:03 61.91993 -5.67119 19583 ft 338 kts 261°
2026-04-29 22:04 61.91820 -5.72025 18680 ft 329 kts 260°
2026-04-29 22:04 61.91654 -5.76813 17683 ft 322 kts 260°
2026-04-29 22:04 61.91475 -5.81507 16693 ft 319 kts 259°
2026-04-29 22:04 61.91289 -5.86251 15737 ft 326 kts 260°
2026-04-29 22:05 61.91104 -5.91094 14819 ft 332 kts 260°
2026-04-29 22:05 61.90920 -5.95940 13961 ft 324 kts 261°
2026-04-29 22:05 61.90581 -6.05302 12251 ft 315 kts 260°
2026-04-29 22:06 61.90423 -6.09731 11504 ft 296 kts 261°
2026-04-29 22:06 61.90268 -6.13969 10800 ft 275 kts 260°
2026-04-29 22:06 61.90124 -6.17959 10136 ft 271 kts 260°
2026-04-29 22:06 61.89969 -6.21978 9463 ft 275 kts 260°
2026-04-29 22:07 61.89806 -6.26041 8816 ft 278 kts 260°
2026-04-29 22:07 61.89634 -6.30143 8184 ft 280 kts 261°
2026-04-29 22:07 61.89473 -6.34264 7568 ft 281 kts 261°
2026-04-29 22:07 61.89316 -6.38328 6979 ft 261 kts 261°
2026-04-29 22:08 61.89185 -6.42003 6332 ft 240 kts 261°
2026-04-29 22:08 61.89044 -6.45533 5679 ft 245 kts 260°
2026-04-29 22:08 61.88886 -6.49173 5098 ft 251 kts 261°
2026-04-29 22:08 61.88731 -6.52896 4517 ft 255 kts 261°
2026-04-29 22:09 61.88574 -6.56630 4181 ft 251 kts 263°
2026-04-29 22:09 61.88810 -6.60244 4050 ft 248 kts 283°
2026-04-29 22:09 61.89364 -6.63685 4007 ft 246 kts 283°
2026-04-29 22:09 61.89888 -6.67095 3999 ft 247 kts 283°
2026-04-29 22:10 61.90434 -6.70560 3996 ft 248 kts 283°
2026-04-29 22:10 61.90991 -6.74030 4000 ft 248 kts 283°
2026-04-29 22:10 61.91551 -6.77483 4004 ft 248 kts 284°
2026-04-29 22:10 61.92110 -6.80947 4008 ft 248 kts 283°
2026-04-29 22:11 61.92658 -6.84418 4004 ft 248 kts 283°
2026-04-29 22:11 61.93203 -6.87889 4006 ft 247 kts 283°
2026-04-29 22:11 61.93740 -6.91340 4000 ft 246 kts 282°
2026-04-29 22:11 61.94254 -6.94771 3986 ft 248 kts 282°
2026-04-29 22:12 61.94787 -6.98247 4000 ft 246 kts 283°
2026-04-29 22:12 61.95317 -7.01715 4006 ft 248 kts 283°
2026-04-29 22:12 61.95840 -7.05142 3998 ft 239 kts 282°
2026-04-29 22:12 61.96348 -7.08475 3993 ft 236 kts 282°
2026-04-29 22:13 61.96838 -7.11800 3990 ft 236 kts 282°
2026-04-29 22:13 61.97328 -7.15147 3984 ft 237 kts 282°
2026-04-29 22:13 61.97815 -7.18493 3982 ft 236 kts 281°
2026-04-29 22:13 61.98306 -7.21825 3990 ft 237 kts 282°
2026-04-29 22:14 61.98821 -7.25185 3984 ft 240 kts 282°
2026-04-29 22:14 61.99347 -7.28563 3985 ft 240 kts 282°
2026-04-29 22:14 61.99858 -7.31889 4005 ft 239 kts 282°
2026-04-29 22:14 62.00362 -7.35266 3997 ft 239 kts 282°
2026-04-29 22:15 62.00849 -7.38514 3983 ft 216 kts 282°
2026-04-29 22:15 62.01292 -7.41339 3989 ft 180 kts 281°
2026-04-29 22:15 62.01662 -7.43746 4027 ft 170 kts 279°
2026-04-29 22:15 62.01996 -7.46053 4014 ft 156 kts 278°
2026-04-29 22:16 62.02303 -7.48192 3986 ft 147 kts 278°
2026-04-29 22:16 62.02716 -7.50234 3998 ft 157 kts 294°
2026-04-29 22:16 62.03370 -7.52175 3754 ft 163 kts 298°
2026-04-29 22:16 62.04204 -7.53831 3561 ft 173 kts 332°
2026-04-29 22:17 62.05005 -7.54030 3543 ft 181 kts
2026-04-29 22:17 62.06607 -7.52646 3191 ft 195 kts 32°
2026-04-29 22:17 62.07669 -7.50949 2861 ft 185 kts 40°
2026-04-29 22:17 62.08607 -7.49115 2476 ft 181 kts 54°
2026-04-29 22:18 62.09028 -7.46738 2164 ft 163 kts 92°
2026-04-29 22:18 62.09000 -7.44441 2015 ft 146 kts 109°
2026-04-29 22:18 62.08809 -7.42398 1965 ft 136 kts 114°
2026-04-29 22:18 62.08550 -7.40433 1962 ft 140 kts 116°
2026-04-29 22:19 62.08286 -7.38402 1816 ft 145 kts 115°
2026-04-29 22:19 62.08042 -7.36306 1537 ft 147 kts 114°
2026-04-29 22:19 62.07789 -7.34223 1157 ft 143 kts 115°
2026-04-29 22:19 62.07491 -7.32284 809 ft 132 kts 126°
2026-04-29 22:20 62.07088 -7.30617 487 ft 123 kts 122°
2026-04-29 22:20 62.06680 -7.28981 291 ft 125 kts 115°
2026-04-29 22:20 62.06313 -7.27543 285 ft 85 kts 118°
2026-04-29 22:20 62.06135 -7.26865 268 ft 25 kts 109°
2026-04-29 22:21 62.06146 -7.26825 267 ft 3 kts 237°
2026-04-29 22:21 62.06174 -7.26997 272 ft 21 kts 294°
2026-04-29 22:21 62.06272 -7.27382 284 ft 38 kts 298°
2026-04-29 22:21 62.06396 -7.27869 286 ft 36 kts 297°
2026-04-29 22:22 62.06475 -7.28134 280 ft 25 kts 329°
2026-04-29 22:22 62.06585 -7.28094 278 ft 2 kts
2026-04-29 22:22 62.06596 -7.28093 278 ft 2 kts
2026-04-29 22:22 62.06615 -7.28092 278 ft 5 kts
2026-04-29 22:23 62.06647 -7.28071 278 ft 9 kts 44°
2026-04-29 22:23 62.06660 -7.27981 278 ft 4 kts 52°
2026-04-29 22:23 62.06679 -7.27954 278 ft 3 kts 29°
2026-04-29 22:23 62.06687 -7.27944 278 ft 0 kts 28°